Regional Weather Roundup
Issued by NWS Upton, NY

Home | Current Version | Previous Version | Text Only | Print | Product List | Glossary On
Versions: 1 2 3 4 5 6 7 8 9 10 11 12 13 14 15 16 17 18 19 20 21 22 23 24 25 26 27
000
ASUS41 KOKX 260909
RWROKX

REGIONAL WEATHER ROUNDUP
NATIONAL WEATHER SERVICE NEW YORK NY
500 AM EDT WED JUL 26 2017

NOTE: "FAIR" INDICATES FEW OR NO CLOUDS BELOW 12,000 FEET WITH NO
SIGNIFICANT WEATHER AND/OR OBSTRUCTIONS TO VISIBILITY.

NYZ071-072-176-178-NJZ106-104-261000-
NEW YORK CITY METRO AREA

CITY           SKY/WX    TMP DP  RH WIND       PRES   REMARKS
Central Park   MOCLDY    65  58  78 N3        30.24S
Bronx Bot Gard   N/A     63  54  72 CALM      30.24R
LaGuardia APRT MOCLDY    66  59  78 N6        30.21R
Kennedy INTL   MOCLDY    64  60  87 NE7       30.22R
Breezy Point     N/A     64 N/A N/A NE5         N/A
Newark/Liberty CLOUDY    66  57  72 NE5       30.22R
Teterboro      MOCLDY    65  57  75 N3        30.21R
$$

NYZ177-179-078>081-261000-
LONG ISLAND NEW YORK

CITY           SKY/WX    TMP DP  RH WIND       PRES   REMARKS
Jones Beach      N/A     63 N/A N/A NE6         N/A
Matinecock PT    N/A     64 N/A N/A NE8         N/A
Farmingdale    CLEAR     61  58  90 N3        30.21S
MacArthur/ISP  CLEAR     60  58  92 N3        30.20F
Shirley        CLEAR     58  57  97 N3        30.20F
Mt Sinai Harb    N/A    N/A N/A N/A N7          N/A
Westhampton    CLEAR     52  50  93 CALM      30.22F
East Hampton   FAIR      53  53  97 CALM      30.20F
Montauk          N/A     62  58  86 N3        30.22S
$$

NYZ052-065-067-261000-
HUDSON VALLEY

CITY           SKY/WX    TMP DP  RH WIND       PRES   REMARKS
White Plains   CLEAR     59  55  87 NW5       30.22R
Larchmont Harb   N/A     63 N/A N/A NW6         N/A
Croton O-T Hud   N/A     59 N/A N/A E1          N/A
Newburgh       CLEAR     59  59 100 CALM      30.25R
Montgomery     FOG       58  57  97 CALM      30.23R VSB 1
Poughkeepsie   CLEAR     57  55  93 CALM      30.23R
Albany         MOCLDY    58  56  93 CALM      30.25R FOG
$$

NJZ001-105-106-008-010-013-015-019>022-104-261000-
NEW JERSEY

CITY           SKY/WX    TMP DP  RH WIND       PRES   REMARKS
Newark/Liberty CLOUDY    66  57  72 NE5       30.22R
Teterboro      MOCLDY    65  57  75 N3        30.21R
Caldwell       CLOUDY    65  58  78 CALM      30.23R
Somerville     CLOUDY    65  62  90 CALM      30.21R
Linden         NOT AVBL
Perth Amboy      N/A     66 N/A N/A E6          N/A
Sussex         CLOUDY    63  62  97 CALM      30.24R
Andover          N/A     62  60  93 CALM      30.24R
Trenton        CLOUDY    66  63  90 NE6       30.21R
Millville      CLOUDY    67  65  93 NE6       30.19R
Atlantic City  CLOUDY    68  63  84 CALM      30.20R
Wrightstown    CLOUDY    65  63  93 E3        30.19R
Toms River     LGT RAIN  66  63  90 NE5       30.22R
Belmar         CLOUDY    66  60  81 N3        30.22S
$$

PAZ047>061-062-071-261000-
EASTERN PENNSYLVANIA

CITY           SKY/WX    TMP DP  RH WIND       PRES   REMARKS
Philadelphia   CLOUDY    68  62  81 NE5       30.21R
Allentown      CLOUDY    65  60  84 E7        30.22S
Scranton       CLOUDY    62  60  93 CALM      30.24R
$$

CTZ002-004>006-009-010-012-RIZ004-006-007-MAZ004-011-015-261000-
SOUTHERN NEW ENGLAND
 IN CT

CITY           SKY/WX    TMP DP  RH WIND       PRES   REMARKS
Bradley INTL   PTCLDY    53  52  96 N3        30.23S
Hartford       FOG       55  55 100 CALM      30.22F VSB 1
Danbury        CLOUDY    55  54  96 CALM      30.24S
Wtrbury/Oxford CLEAR     54  48  82 CALM      30.23S
Bridgeport     CLEAR     60  56  86 N7        30.21F
Meriden        CLEAR     55  54  96 CALM      30.22F
New Haven      CLEAR     57  55  93 CALM      30.21F
Chester        NOT AVBL
Groton         CLEAR     57  55  93 N5        30.20F
Wilimantic     CLOUDY    56  54  93 CALM      30.23S

 IN RI

CITY           SKY/WX    TMP DP  RH WIND       PRES   REMARKS
Providence     CLEAR     55  55 100 CALM      30.22S
Block Island   CLEAR     59  56  89 NW3       30.22S
Westerly       CLEAR     55  54  96 CALM      30.22S
 IN MA

CITY           SKY/WX    TMP DP  RH WIND       PRES   REMARKS
Boston         CLEAR     60  56  86 W5        30.21R
Worcester      CLEAR     56  53  90 NW7       30.23S
Westfield      FOG       54  54 100 N5        30.24R VSB 3/4
Provincetown   CLEAR     57  54  89 NW7       30.21R
Nantucket      CLEAR     55  55 100 N6        30.20R
$$

ANZ330-335-338-340-345-350-353-355-261000-
COASTAL MARINE OBSERVATIONS


STATION/POSITION TIME  SKY/WX   TEMP    WIND        PRES    VSBY  WAVE
                                AIR SEA DIR/SP/G                  HT/PER
                 (UTC)          (F)     (DEG/KT/KT) (MB)    (MI)  (FT/S)
NY HARB ENTRANCE 0750            67 70   30/ 10/ 12 1022.4          3/ 7
20 S FIRE ISLAND 0850            67 73   50/ 10/ 14 1022.0          3/ 7
GREAT SOUTH BAY  0830            65 74   40/ 10/ 10   N/A
23 SSW MONTAUK P 0750            65 72              1023.0          3/ 5
15 E BARNEGAT LI 0830               72                N/A           3/ 5
HUDSON CANYON    0750            68 73   40/ 12/ 16 1021.3          3/ 6
KINGS POINT      0836            64 71   80/  4/  5 1022.9
EXECUTION ROCKS  0845            66      50/  8/ 10   N/A
CENTRAL LI SOUND NOT AVBL
EASTERN LI SOUND NOT AVBL
ROBBINS REEF     0836                    40/  6/  8 1023.4
$$


>>>>>>>>>>>>>>>>>>>>>>>>>>>> KEY <<<<<<<<<<<<<<<<<<<<<<<<<<<
>                                                          <
>     SKY/WX - Sky Condition/Present Weather               <
>     TMP    - Temperature in Fahrenheit                   <
>     DP     - Dew Point in Fahrenheit                     <
>     RH     - Relative Humidity in Percent                <
>     WIND   - Direction (from) and Speed in MPH           <
>     PRES   - Mean Sea Level Pressure (inches of Hg)      <
>     WCI    - Wind Chill Index                            <
>     VSB    - VISIBILITY IN MILES                         <
>     HX     - HEAT INDEX                                  <
>     TC     - TEMPERATURE IN CELSIUS                      <
>     VRB    - VARIABLE WIND DIRECTION                     <
>                                                          <
>>>>>>>>>>>>>>>>>>>>>>>>>>>> KEY <<<<<<<<<<<<<<<<<<<<<<<<<<<




USA.gov is the U.S. government's official web portal to all federal, state and local government web resources and services.